This is the latest recevied weather packets stored in our database for station/object KB1JDX. If no packets are shown the sender has not sent any weather packets the latest 10 day(s).
| Time | Temp. | Humidity | Pressure | Rain* | Wind** | Luminosity | Snow |
|---|---|---|---|---|---|---|---|
| 1777990834 | 17.22° C | 64% | 1010.3 hPa | 0 mm | 1.79 m/s, 190° | - | - |
| 1777990766 | 17.22° C | 64% | 1010.3 hPa | 0 mm | 0 m/s | - | - |
| 1777989635 | 17.22° C | 62% | 1010.6 hPa | 0 mm | 0 m/s | - | - |
| 1777988434 | 16.67° C | 62% | 1010.7 hPa | 0 mm | 0 m/s | - | - |
| 1777987234 | 15.56° C | 55% | 1011 hPa | 0 mm | 0 m/s | - | - |
| 1777987166 | 15.56° C | 54% | 1011 hPa | 0 mm | 0 m/s | - | - |
| 1777986035 | 14.44° C | 48% | 1011.1 hPa | 0 mm | 0 m/s | - | - |
| 1777984834 | 13.89° C | 37% | 1011.2 hPa | 0 mm | 0 m/s | - | - |
| 1777983634 | 12.78° C | 25% | 1011.3 hPa | 0 mm | 0 m/s | - | - |
| 1777983566 | 12.78° C | 25% | 1011.4 hPa | 0 mm | 0 m/s | - | - |
| 1777982435 | 12.22° C | 10% | 1011.2 hPa | 0 mm | 0 m/s | - | - |
| 1777981234 | 11.11° C | 100% | 1011.1 hPa | 0 mm | 0 m/s | - | - |
| 1777980034 | 10° C | 1% | 1011.1 hPa | 0 mm | 0 m/s | - | - |
| 1777979966 | 10° C | 1% | 1011.1 hPa | 0 mm | 0 m/s | - | - |
| 1777978834 | 10° C | 100% | 1010.9 hPa | 0 mm | 0 m/s | - | - |
| 1777977634 | 9.44° C | 100% | 1010.7 hPa | 0 mm | 0 m/s | - | - |
| 1777976434 | 8.89° C | 2% | 1010.7 hPa | 0 mm | 0 m/s | - | - |
| 1777976366 | 8.89° C | 2% | 1010.6 hPa | 0 mm | 0 m/s | - | - |
| 1777975234 | 8.33° C | 2% | 1010.3 hPa | 0 mm | 0 m/s | - | - |
| 1777974034 | 7.78° C | 5% | 1010.3 hPa | 0 mm | 0 m/s | - | - |
| 1777972834 | 7.78° C | 9% | 1010.4 hPa | 0 mm | 0 m/s | - | - |
| 1777972766 | 7.78° C | 10% | 1010.4 hPa | 0 mm | 0 m/s | - | - |
| 1777970435 | 7.22° C | 16% | 1010.7 hPa | 0 mm | 0 m/s | - | - |
| 1777969234 | 7.78° C | 15% | 1010.8 hPa | 0 mm | 0 m/s | - | - |
| 1777969166 | 7.78° C | 15% | 1010.8 hPa | 0 mm | 0 m/s | - | - |
* Rain latest hour (hover to see other rain measurements)
** Current wind speed in m/s (hover to see current wind gust speed)